| time (UTC) | temp C | wind direction | speed KPH | gust KPH | rain 1hr cm | rain 24hr cm | rain mn cm | humidity % | barometer mb |
| 20260503013046 | 17 | 360 | 6.4 | 12.9 | 0.00 | 0.00 | 0.00 | 35 | 1014.3 |
| 20260503011550 | 18 | 360 | 8.0 | 16.1 | 0.00 | 0.00 | 0.00 | 35 | 1014.3 |
| 20260503010041 | 18 | 360 | 3.2 | 9.7 | 0.00 | 0.00 | 0.00 | 34 | 1014.5 |
| 20260503004541 | 18 | 360 | 1.6 | 8.0 | 0.00 | 0.00 | 0.00 | 34 | 1014.5 |
| 20260503003040 | 18 | 360 | 3.2 | 9.7 | 0.00 | 0.00 | 0.00 | 34 | 1014.7 |
| 20260503001539 | 18 | 360 | 9.7 | 14.5 | 0.00 | 0.00 | 0.00 | 34 | 1014.8 |
| 20260503000051 | 18 | 360 | 1.6 | 14.5 | 0.00 | 0.00 | 0.00 | 34 | 1015.0 |
| 20260502234539 | 19 | 360 | 3.2 | 8.0 | 0.00 | 0.00 | 0.00 | 33 | 1015.1 |
| 20260502233038 | 19 | 360 | 4.8 | 9.7 | 0.00 | 0.00 | 0.00 | 33 | 1015.2 |
| 20260502231540 | 19 | 360 | 6.4 | 12.9 | 0.00 | 0.00 | 0.00 | 33 | 1015.3 |
| 20260502230035 | 19 | 360 | 6.4 | 14.5 | 0.00 | 0.00 | 0.00 | 33 | 1015.5 |
| 20260502224535 | 18 | 360 | 3.2 | 9.7 | 0.00 | 0.00 | 0.00 | 33 | 1015.8 |
| 20260502223034 | 18 | 360 | 3.2 | 9.7 | 0.00 | 0.00 | 0.00 | 33 | 1016.0 |
| 20260502221536 | 18 | 360 | 0.0 | 6.4 | 0.00 | 0.00 | 0.00 | 34 | 1016.1 |
| 20260502220036 | 18 | 360 | 6.4 | 14.5 | 0.00 | 0.00 | 0.00 | 33 | 1016.3 |
| 20260502214532 | 20 | 360 | 8.0 | 20.9 | 0.00 | 0.00 | 0.00 | 30 | 1016.4 |
| 20260502213030 | 20 | 360 | 9.7 | 16.1 | 0.00 | 0.00 | 0.00 | 30 | 1016.6 |
| 20260502211529 | 18 | 360 | 0.0 | 6.4 | 0.00 | 0.00 | 0.00 | 32 | 1016.7 |
| 20260502210028 | 20 | 360 | 4.8 | 16.1 | 0.00 | 0.00 | 0.00 | 31 | 1016.8 |
| 20260502204527 | 19 | 360 | 3.2 | 19.3 | 0.00 | 0.00 | 0.00 | 33 | 1016.9 |
| 20260502203026 | 19 | 360 | 9.7 | 22.5 | 0.00 | 0.00 | 0.00 | 31 | 1017.1 |
| 20260502201525 | 19 | 360 | 4.8 | 14.5 | 0.00 | 0.00 | 0.00 | 33 | 1017.1 |
| 20260502200020 | 17 | 360 | 11.3 | 20.9 | 0.00 | 0.00 | 0.00 | 37 | 1017.3 |
| 20260502194518 | 17 | 360 | 6.4 | 16.1 | 0.00 | 0.00 | 0.00 | 36 | 1017.6 |
| 20260502193018 | 17 | 360 | 3.2 | 14.5 | 0.00 | 0.00 | 0.00 | 38 | 1017.7 |
| 20260502191512 | 16 | 360 | 3.2 | 12.9 | 0.00 | 0.00 | 0.00 | 39 | 1018.1 |
| 20260502190009 | 16 | 360 | 8.0 | 14.5 | 0.00 | 0.00 | 0.00 | 41 | 1018.2 |
| 20260502184510 | 16 | 360 | 4.8 | 12.9 | 0.00 | 0.00 | 0.00 | 41 | 1018.2 |
| 20260502183009 | 16 | 360 | 3.2 | 12.9 | 0.00 | 0.00 | 0.00 | 39 | 1018.3 |
| 20260502181509 | 16 | 360 | 6.4 | 17.7 | 0.00 | 0.00 | 0.00 | 39 | 1018.3 |
| 20260502163100 | 15 | 360 | 16.1 | 27.4 | 0.00 | 0.00 | 0.00 | 44 | 1018.4 |
| 20260502161623 | 15 | 360 | 16.1 | 22.5 | 0.00 | 0.00 | 0.00 | 45 | 1018.3 |
| 20260502160125 | 14 | 360 | 17.7 | 22.5 | 0.00 | 0.00 | 0.00 | 46 | 1018.3 |
| 20260502151553 | 15 | 360 | 11.3 | 17.7 | 0.00 | 0.00 | 0.00 | 46 | 1018.2 |
| 20260502123054 | 6 | 360 | 4.8 | 6.4 | 0.00 | 0.00 | 0.00 | 67 | 1017.9 |
| 20260502121526 | 6 | 360 | 4.8 | 6.4 | 0.00 | 0.00 | 0.00 | 66 | 1017.8 |
| 20260502114525 | 7 | 360 | 3.2 | 6.4 | 0.00 | 0.00 | 0.00 | 60 | 1017.5 |
| 20260502113024 | 7 | 360 | 6.4 | 14.5 | 0.00 | 0.00 | 0.00 | 59 | 1017.4 |
| 20260502111524 | 8 | 360 | 9.7 | 20.9 | 0.00 | 0.00 | 0.00 | 57 | 1016.8 |
| 20260502110019 | 8 | 360 | 12.9 | 20.9 | 0.00 | 0.00 | 0.00 | 56 | 1016.8 |
| 20260502104518 | 8 | 360 | 8.0 | 22.5 | 0.00 | 0.00 | 0.00 | 56 | 1016.6 |
| 20260502103017 | 8 | 360 | 8.0 | 16.1 | 0.00 | 0.00 | 0.00 | 56 | 1016.6 |
| 20260502101514 | 7 | 360 | 6.4 | 9.7 | 0.00 | 0.00 | 0.00 | 57 | 1016.2 |
| 20260502091512 | 8 | 360 | 3.2 | 6.4 | 0.00 | 0.00 | 0.00 | 53 | 1016.1 |
| 20260502070048 | 6 | 360 | 4.8 | 8.0 | 0.00 | 0.00 | 0.00 | 60 | 1014.6 |
| 20260502064547 | 6 | 360 | 6.4 | 8.0 | 0.00 | 0.00 | 0.00 | 62 | 1014.6 |
| 20260502063055 | 7 | 360 | 4.8 | 9.7 | 0.00 | 0.00 | 0.00 | 62 | 1014.5 |
| 20260502061542 | 7 | 360 | 8.0 | 12.9 | 0.00 | 0.00 | 0.00 | 60 | 1014.6 |
| 20260502060042 | 7 | 360 | 8.0 | 17.7 | 0.00 | 0.00 | 0.00 | 61 | 1014.5 |
| 20260502054540 | 7 | 360 | 8.0 | 14.5 | 0.00 | 0.00 | 0.00 | 56 | 1014.5 |
| 20260502053041 | 8 | 360 | 6.4 | 16.1 | 0.00 | 0.00 | 0.00 | 56 | 1014.4 |
| 20260502051538 | 9 | 360 | 3.2 | 6.4 | 0.00 | 0.00 | 0.00 | 51 | 1014.4 |
| 20260502050043 | 10 | 360 | 6.4 | 12.9 | 0.00 | 0.00 | 0.00 | 49 | 1014.5 |
| 20260502044537 | 10 | 360 | 3.2 | 6.4 | 0.00 | 0.00 | 0.00 | 44 | 1014.4 |
| 20260502043036 | 9 | 360 | 3.2 | 9.7 | 0.00 | 0.00 | 0.00 | 45 | 1014.3 |
| 20260502041537 | 10 | 360 | 0.0 | 8.0 | 0.00 | 0.00 | 0.00 | 43 | 1014.2 |
| 20260502040035 | 11 | 360 | 0.0 | 4.8 | 0.00 | 0.00 | 0.00 | 42 | 1014.1 |
| 20260502034535 | 12 | 360 | 0.0 | 4.8 | 0.00 | 0.00 | 0.00 | 43 | 1014.1 |
| 20260502033042 | 13 | 360 | 3.2 | 8.0 | 0.00 | 0.00 | 0.00 | 41 | 1014.0 |
| 20260502031534 | 16 | 360 | 1.6 | 8.0 | 0.00 | 0.00 | 0.00 | 30 | 1013.8 |
| 20260502030033 | 17 | 360 | 6.4 | 9.7 | 0.00 | 0.00 | 0.00 | 24 | 1013.6 |
| 20260502024532 | 17 | 360 | 6.4 | 9.7 | 0.00 | 0.00 | 0.00 | 26 | 1013.4 |
| 20260502023032 | 18 | 360 | 6.4 | 9.7 | 0.00 | 0.00 | 0.00 | 24 | 1013.3 |
| 20260502021531 | 18 | 360 | 6.4 | 9.7 | 0.00 | 0.00 | 0.00 | 23 | 1013.2 |
| 20260502020030 | 19 | 360 | 4.8 | 9.7 | 0.00 | 0.00 | 0.00 | 24 | 1013.2 |
| 20260502014533 | 20 | 360 | 4.8 | 9.7 | 0.00 | 0.00 | 0.00 | 23 | 1013.2 |